METAR AND TAF INFORMATION
METAR FOR KPIT
KPIT 231851Z 27004KT 10SM SCT031 SCT045 BKN220 28/18 A3009 RMK AO2 SLP189 T02780178 $
KPIT 231751Z 16006KT 10SM SCT025 OVC220 26/18 A3011 RMK AO2 SLP195 T02560178 10267 20194 58000 $
KPIT 231651Z VRB05KT 10SM SCT024 OVC200 25/17 A3012 RMK AO2 SLP197 T02500172 $
KPIT 231726Z 2318/2424 21006KT P6SM SCT035 BKN250
FM240100 VRB02KT P6SM SCT100 BKN250
FM241500 23007KT P6SM BKN040
FM242000 24008KT P6SM VCTS BKN050CB

 AIRPORT MAP

 RUNWAY INFORMATION
Runway 10C Runway length 9708 ft Runway width 150 ft
Runway elevation 1139 ft Runway displaced threshold 0 ft Runway heading 92
Runway 28C Runway length 9708 ft Runway width 150 ft
Runway elevation 1134 ft Runway displaced threshold 0 ft Runway heading 272
Runway 10L Runway length 10502 ft Runway width 150 ft
Runway elevation 1204 ft Runway displaced threshold 0 ft Runway heading 92
Runway 28R Runway length 10502 ft Runway width 150 ft
Runway elevation 1175 ft Runway displaced threshold 0 ft Runway heading 272
Runway 10R Runway length 11500 ft Runway width 200 ft
Runway elevation 1135 ft Runway displaced threshold 0 ft Runway heading 92
Runway 28L Runway length 11500 ft Runway width 200 ft
Runway elevation 1123 ft Runway displaced threshold 0 ft Runway heading 272
Runway 14 Runway length 8101 ft Runway width 150 ft
Runway elevation 1148 ft Runway displaced threshold 0 ft Runway heading 136
Runway 32 Runway length 8101 ft Runway width 150 ft
Runway elevation 1114 ft Runway displaced threshold 0 ft Runway heading 316

 AIRPORT FREQUENCIES
Type APP Name APP Frequency 120.875 MHZ
Type APP Name APP Frequency 36.08 MHZ
Type ATIS Name ATIS Frequency 127.25 MHZ
Type CLD Name CLNC DEL Frequency 126.75 MHZ
Type DEP Name DEP Frequency 118.65 MHZ
Type GND Name GND Frequency 121.9 MHZ
Type OPS Name ANG OPS Frequency 31.1 MHZ
Type POST Name PITT COMD Frequency 25.21 MHZ
Type RDO Name ALTOONA RD Frequency 112 MHZ
Type RMP Name RAMP CON Frequency 131.375 MHZ
Type TWR Name TWR Frequency 119.1 MHZ
Type UNIC Name UNICOM Frequency 122.95 MHZ

 AIRPORT NEAR NAVIGATION AIDS
Type VORTAC Name Montour Frequency 112000 KHZ

-